Home > Weather > Dijon > Past weeks

Flag for France Weather for the Past 2 Weeks in Dijon, France

Now
36 °F

Light rain. Fog.


Feels Like: 29 °F
Forecast: 39 / 47 °F
Wind: 8 mph from East

Location: Dijon Airport

Current Time: Feb 12, 2016 at 10:57:54 AM

Latest Report: Feb 12, 2016 at 10:30 AM


Visibility: 3 mi

Pressure: 29.47 "Hg

Humidity: 100%

Dew point: 36 °F

Location of DijonLocation

Historic Weather in Dijon — Graph

°F

Dijon Temperature Yesterday

Maximum temperature yesterday: 43 °F (at 2:00 PM)
Minimum temperature yesterday: 27 °F (at 4:00 AM)
Average temperature yesterday: 36 °F

High & Low Weather Summary for the Past Weeks

 TemperatureHumidityPressure
High57 °F (Feb 6, 2:00 PM)100% (Jan 28, 10:00 PM)30.54 "Hg (Jan 28, 10:00 PM)
Low27 °F (Feb 11, 4:00 AM)53% (Feb 10, 2:30 PM)29.30 "Hg (Feb 9, 2:00 PM)
Average44 °F83%30.06 "Hg
* Reported Jan 28 9:00 AM — Feb 12 9:30 AM, Dijon, Weather by CustomWeather, © 2016

Note: Actual official high and low records may vary slightly from our data, if they occured in-between our weather recording intervals... More about our weather records

Advertising

Dijon Weather History for the Previous 24 Hours

 ConditionsComfort  
Time TempWeatherWind HumidityBarometerVisibility
9:30 AM
Fri, Feb 12
36 °FFog.3 mph93%29.50 "Hg2 mi
9:00 AM36 °FDense fog.5 mph93%29.53 "Hg1 mi
8:30 AM36 °FFog.3 mph93%29.56 "Hg1 mi
8:00 AM34 °FFog.2 mph100%29.56 "Hg1 mi
7:30 AM34 °FFog.5 mph93%29.56 "Hg2 mi
7:00 AM34 °FFog.3 mph93%29.59 "Hg3 mi
6:30 AM30 °FIce fog.5 mph100%29.62 "Hg3 mi
6:00 AM32 °FIce fog.2 mph93%29.65 "Hg3 mi
5:30 AM34 °FPassing clouds.3 mph93%29.65 "Hg4 mi
5:00 AM34 °FPartly cloudy.3 mph93%29.68 "HgN/A
4:30 AM34 °FOvercast.5 mph93%29.68 "HgN/A
4:00 AM34 °FOvercast.3 mph100%29.71 "HgN/A
3:30 AM34 °FOvercast.3 mph93%29.71 "HgN/A
3:00 AM34 °FOvercast.3 mph93%29.71 "HgN/A
2:30 AM32 °FMostly cloudy.2 mph93%29.74 "Hg6 mi
2:00 AM32 °FClear.5 mph100%29.74 "Hg10 mi
1:30 AM32 °FClear.6 mph93%29.74 "Hg10 mi
1:00 AM32 °FClear.6 mph93%29.74 "Hg6 mi
12:30 AM34 °FPassing clouds.6 mph93%29.74 "HgN/A
12:00 AM34 °FOvercast.3 mph93%29.74 "HgN/A
11:00 PM
Thu, Feb 11
36 °FClear.1 mph87%29.74 "Hg10 mi
10:30 PM36 °FOvercast.5 mph93%29.74 "HgN/A
10:00 PM37 °FMostly cloudy.2 mph87%29.74 "HgN/A
9:30 PM37 °FOvercast.3 mph87%29.74 "HgN/A
9:00 PM37 °FMostly cloudy.3 mph87%29.77 "HgN/A
8:30 PM37 °FMostly cloudy.3 mph87%29.77 "HgN/A
8:00 PM39 °FMostly cloudy.5 mph87%29.74 "HgN/A
7:30 PM39 °FLight rain. Mostly cloudy.6 mph81%29.74 "HgN/A
7:00 PM41 °FPassing clouds.5 mph76%29.74 "HgN/A
6:30 PM41 °FClear.No wind76%29.74 "Hg10 mi
6:00 PM41 °FOvercast.1 mph76%29.74 "HgN/A
5:30 PM43 °FBroken clouds.2 mph71%29.74 "HgN/A
5:00 PM43 °FSunny.2 mph71%29.74 "Hg10 mi
4:30 PM43 °FBroken clouds.3 mph71%29.74 "HgN/A
4:00 PM43 °FPassing clouds.3 mph66%29.74 "HgN/A
3:30 PM43 °FPassing clouds.5 mph66%29.74 "HgN/A
3:00 PM43 °FOvercast.5 mph71%29.74 "HgN/A
2:30 PM43 °FBroken clouds.3 mph71%29.74 "HgN/A
2:00 PM43 °FPartly sunny.2 mph71%29.74 "HgN/A
1:30 PM41 °FMostly cloudy.3 mph81%29.74 "HgN/A
1:00 PM41 °FPartly sunny.2 mph81%29.77 "HgN/A
12:30 PM41 °FPartly sunny.5 mph76%29.77 "HgN/A
12:00 PM39 °FBroken clouds.1 mph87%29.80 "HgN/A
11:30 AM39 °FBroken clouds.2 mph81%29.80 "HgN/A
11:00 AM37 °FSunny.2 mph100%29.80 "Hg10 mi
10:30 AM34 °FLow clouds.2 mph100%29.80 "HgN/A
10:00 AM32 °FIce fog.3 mph100%29.80 "Hg3 mi
Weather by CustomWeather, © 2016

See weather overviewHow to use our weather pages